This is the latest recevied weather packets stored in our database for station/object KK7RJD. If no packets are shown the sender has not sent any weather packets the latest 10 day(s).
| Time | Temp. | Humidity | Pressure | Rain* | Wind** | Luminosity | Snow |
|---|---|---|---|---|---|---|---|
| 1778140339 | 8.89° C | 44% | 1011.6 hPa | 0 mm | - | 0 W/m² | - |
| 1778140035 | 8.89° C | 42% | 1011.5 hPa | 0 mm | - | 0 W/m² | - |
| 1778139734 | 8.89° C | 36% | 1011.3 hPa | 0 mm | - | 0 W/m² | - |
| 1778139430 | 8.89° C | 35% | 1011.5 hPa | 0 mm | - | 0 W/m² | - |
| 1778139126 | 7.78° C | 36% | 1011.5 hPa | 0 mm | - | 0 W/m² | - |
| 1778138825 | 7.78° C | 40% | 1011.6 hPa | 0 mm | - | 0 W/m² | - |
| 1778138521 | 7.78° C | 37% | 1011.6 hPa | 0 mm | - | 0 W/m² | - |
| 1778138219 | 8.33° C | 34% | 1011.5 hPa | 0 mm | - | 0 W/m² | - |
| 1778137915 | 8.89° C | 36% | 1011.7 hPa | 0 mm | - | 0 W/m² | - |
| 1778137612 | 9.44° C | 31% | 1011.7 hPa | 0 mm | - | 0 W/m² | - |
| 1778137309 | 9.44° C | 32% | 1011.6 hPa | 0 mm | - | 0 W/m² | - |
| 1778137005 | 9.44° C | 33% | 1011.7 hPa | 0 mm | - | 0 W/m² | - |
| 1778136702 | 9.44° C | 31% | 1011.7 hPa | 0 mm | - | 0 W/m² | - |
| 1778136400 | 10° C | 30% | 1011.7 hPa | 0 mm | - | 0 W/m² | - |
| 1778136098 | 10° C | 30% | 1011.7 hPa | 0 mm | - | 0 W/m² | - |
| 1778135796 | 10° C | 30% | 1011.6 hPa | 0 mm | - | 0 W/m² | - |
| 1778135492 | 10° C | 29% | 1011.6 hPa | 0 mm | - | 0 W/m² | - |
| 1778135189 | 10° C | 29% | 1011.7 hPa | 0 mm | - | 0 W/m² | - |
| 1778134887 | 10° C | 29% | 1011.9 hPa | 0 mm | - | 0 W/m² | - |
| 1778134584 | 10° C | 29% | 1011.9 hPa | 0 mm | - | 0 W/m² | - |
| 1778134282 | 10° C | 30% | 1011.8 hPa | 0 mm | - | 0 W/m² | - |
| 1778133980 | 10° C | 31% | 1012.1 hPa | 0 mm | - | 0 W/m² | - |
| 1778133676 | 10.56° C | 30% | 1011.9 hPa | 0 mm | - | 0 W/m² | - |
| 1778133372 | 10.56° C | 29% | 1012.1 hPa | 0 mm | - | 0 W/m² | - |
| 1778133068 | 10° C | 30% | 1012.4 hPa | 0 mm | - | 0 W/m² | - |
* Rain latest hour (hover to see other rain measurements)
** Current wind speed in m/s (hover to see current wind gust speed)